FW2200 Weather Reports


time (UTC)temp
C
wind
direction
speed
KPH
gust
KPH
rain 1hr
cm
rain 24hr
cm
rain mn
cm
humidity
%
barometer
mb
20260507070017 6 11 0.0 0.0 0.00 0.03 0.00 85 1021.8
20260507064508 6 11 0.0 0.0 0.00 0.03 0.00 85 1022.2
20260507063005 6 11 0.0 0.0 0.00 0.03 0.00 84 1022.0
20260507061504 6 11 0.0 0.0 0.00 0.03 0.00 84 1021.7
20260507060002 6 11 0.0 0.0 0.00 0.03 0.00 83 1021.9
20260507054609 6 11 0.0 0.0 0.00 0.03 0.00 83 1021.9
20260507053105 6 11 0.0 0.0 0.00 0.03 0.00 83 1021.7
20260507051558 7 11 0.0 0.0 0.00 0.03 0.00 82 1021.8
20260507050055 7 11 0.0 0.0 0.00 0.03 0.00 82 1021.7
20260507044600 6 11 0.0 0.0 0.00 0.03 0.03 81 1021.6
20260507043056 7 11 0.0 0.0 0.00 0.03 0.03 81 1021.5
20260507041551 7 11 0.0 0.0 0.00 0.03 0.03 81 1021.5
20260507040049 7 11 0.0 0.0 0.00 0.03 0.03 80 1021.4
20260507034553 7 341 0.0 0.0 0.00 0.03 0.03 79 1021.2
20260507033048 8 341 0.0 0.0 0.00 0.03 0.03 78 1021.2
20260507031548 8 341 0.0 0.0 0.00 0.03 0.03 78 1021.2
20260507030053 8 341 0.0 0.0 0.00 0.03 0.03 77 1020.9
20260507024553 9 341 0.0 0.0 0.00 0.03 0.03 77 1020.7
20260507023045 9 341 0.0 0.0 0.00 0.03 0.03 76 1020.5
20260507021544 10 341 0.0 0.0 0.00 0.03 0.03 74 1020.6
20260507020049 10 341 0.0 0.0 0.00 0.03 0.03 73 1020.4
20260507014544 11 341 0.0 0.0 0.00 0.03 0.03 71 1020.3
20260507013055 12 341 0.0 0.0 0.00 0.03 0.03 68 1020.1
20260507011544 12 341 0.0 0.0 0.00 0.03 0.03 66 1020.0
20260507010044 13 341 0.0 0.0 0.00 0.03 0.03 62 1019.9
20260507004541 14 341 0.0 1.6 0.00 0.03 0.03 57 1019.8
20260507003044 15 341 0.0 1.6 0.00 0.03 0.03 55 1019.8
20260507001543 15 341 0.0 1.6 0.00 0.03 0.03 53 1019.7
20260507000043 16 69 0.0 1.6 0.00 0.03 0.03 52 1019.7
20260506234542 16 69 0.0 1.6 0.00 0.03 0.03 51 1019.5
20260506233038 17 14 0.0 3.2 0.00 0.03 0.03 48 1019.4
20260506231542 18 70 0.0 3.2 0.00 0.03 0.03 47 1019.4
20260506230037 17 37 0.0 1.6 0.00 0.03 0.03 49 1019.0
20260506224539 17 16 0.0 8.0 0.00 0.03 0.03 48 1018.6
20260506223032 17 357 0.0 4.8 0.00 0.03 0.03 51 1018.5
20260506221529 16 85 0.0 3.2 0.00 0.03 0.03 53 1018.4
20260506220034 16 342 0.0 3.2 0.00 0.03 0.03 53 1018.5
20260506214528 16 346 0.0 3.2 0.00 0.03 0.03 52 1018.7
20260506213027 16 24 0.0 4.8 0.00 0.03 0.03 54 1018.9
20260506211531 16 54 0.0 0.0 0.00 0.03 0.03 54 1018.9
20260506210027 15 346 0.0 0.0 0.00 0.03 0.03 57 1019.1
20260506204526 16 40 0.0 0.0 0.00 0.03 0.03 56 1019.3
20260506203125 16 344 0.0 4.8 0.00 0.03 0.03 55 1019.6
20260506201524 16 37 0.0 4.8 0.00 0.03 0.03 56 1019.6
20260506200022 15 351 0.0 4.8 0.00 0.03 0.03 56 1019.9
20260506194522 16 13 1.6 11.3 0.00 0.03 0.03 56 1020.0
20260506193021 16 344 0.0 3.2 0.00 0.03 0.03 54 1019.9
20260506191519 16 341 0.0 3.2 0.00 0.03 0.03 57 1019.9
20260506190019 16 336 0.0 8.0 0.00 0.03 0.03 54 1020.1
20260506184520 16 310 0.0 6.4 0.00 0.03 0.03 56 1020.1
20260506183013 15 310 0.0 4.8 0.00 0.03 0.03 59 1020.5
20260506181508 14 303 0.0 3.2 0.00 0.03 0.03 63 1020.9
20260506180007 13 357 0.0 3.2 0.00 0.03 0.03 61 1021.2
20260506174507 14 314 0.0 0.0 0.00 0.03 0.03 62 1021.5
20260506173005 14 267 0.0 0.0 0.00 0.03 0.03 62 1021.7
20260506171511 14 174 0.0 1.6 0.00 0.03 0.03 62 1021.6
20260506170003 13 356 0.0 4.8 0.00 0.03 0.03 62 1021.6
20260506164603 13 59 0.0 3.2 0.00 0.03 0.03 64 1021.3
20260506163105 13 14 0.0 3.2 0.00 0.03 0.03 65 1021.2
20260506161603 12 63 0.0 3.2 0.00 0.03 0.03 64 1020.8
20260506160048 12 347 0.0 6.4 0.00 0.03 0.03 68 1020.3
20260506154606 11 21 0.0 3.2 0.00 0.03 0.03 71 1020.2
20260506153042 11 4 0.0 3.2 0.00 0.03 0.03 72 1020.5
20260506151538 11 35 0.0 3.2 0.00 0.03 0.03 74 1020.2
20260506150035 10 336 0.0 4.8 0.00 0.03 0.03 76 1020.0
20260506144536 10 348 0.0 3.2 0.00 0.03 0.03 77 1020.3
20260506143033 10 27 0.0 1.6 0.00 0.03 0.03 76 1020.3
20260506141528 10 31 0.0 3.2 0.00 0.03 0.03 77 1020.1
20260506140029 9 341 0.0 3.2 0.00 0.03 0.03 78 1020.1
20260506134525 9 337 0.0 1.6 0.00 0.03 0.03 80 1020.0
20260506133039 8 76 0.0 3.2 0.00 0.03 0.03 81 1020.1
20260506131528 8 346 0.0 1.6 0.00 0.03 0.03 83 1020.0
20260506130016 8 351 0.0 3.2 0.00 0.03 0.03 84 1019.9
20260506124514 8 353 0.0 3.2 0.00 0.03 0.03 85 1019.6
20260506123013 8 16 0.0 4.8 0.00 0.03 0.03 85 1019.7
20260506121510 7 341 0.0 3.2 0.00 0.03 0.03 85 1019.5
20260506120015 7 49 0.0 1.6 0.00 0.03 0.03 85 1019.2
20260506114509 7 12 0.0 1.6 0.00 0.03 0.03 85 1019.1
20260506113011 7 348 0.0 1.6 0.00 0.03 0.03 85 1019.3
20260506111506 7 108 0.0 1.6 0.00 0.03 0.03 85 1018.8
20260506110004 7 345 0.0 1.6 0.00 0.05 0.03 85 1018.7
20260506104506 7 346 0.0 1.6 0.00 0.05 0.03 85 1018.5
20260506103107 7 353 0.0 1.6 0.00 0.05 0.03 85 1017.9
20260506101559 7 353 0.0 1.6 0.00 0.05 0.03 85 1017.7
20260506100059 7 32 0.0 1.6 0.00 0.05 0.03 85 1016.8
20260506094553 7 343 0.0 1.6 0.00 0.08 0.03 86 1016.6
20260506093051 7 339 0.0 1.6 0.00 0.08 0.03 87 1016.3
20260506091554 7 12 0.0 1.6 0.00 0.08 0.03 87 1016.2
20260506090050 7 18 0.0 1.6 0.00 0.08 0.03 87 1016.0
20260506084553 7 46 0.0 1.6 0.00 0.71 0.03 88 1016.2
20260506083051 7 46 0.0 0.0 0.00 0.71 0.03 88 1016.2
20260506081549 7 46 0.0 1.6 0.00 0.71 0.03 88 1015.9
20260506073047 7 45 0.0 1.6 0.03 2.64 0.03 90 1015.1
20260506071545 7 52 0.0 3.2 0.03 2.64 0.03 90 1014.8